Wind_Speed
23 24 24 23 23 23 24 24 25 25 25 25 26 26 26 26 26 27 27 26 25 24 24 23 22 22 22 23 23 23 23 23 24 24 23 23 23 23 23 23 23 24 24
25 25 25 24 23 23 24 25 25 26 25 25 26 26 27 26 26 26 26 26 25 24 24 22 22 23 23 23 23 24 24 24 24 24 24 23 23 24 24 24 24 24 24
26 26 25 23 23 24 24 25 25 25 25 25 25 25 25 25 25 24 25 24 24 24 23 23 23 24 24 24 25 25 25 25 25 25 25 24 24 23 24 24 24 24 24
25 25 24 24 24 24 24 24 24 24 24 24 24 24 24 24 24 24 23 22 22 23 23 23 24 24 24 25 24 24 25 26 25 24 25 25 25 25 24 24 24 24 25
25 24 23 23 24 23 23 23 22 22 22 22 22 23 23 23 23 22 22 22 22 21 21 20 20 21 22 23 23 23 24 25 25 25 25 24 25 26 26 25 25 25 25
23 22 22 23 22 21 21 20 20 19 19 20 21 22 22 22 22 21 21 21 21 21 19 19 20 20 21 22 23 23 23 24 24 24 25 25 26 26 26 26 26 25 25
21 21 21 20 20 19 18 18 18 18 18 19 20 20 21 22 21 20 20 21 21 20 19 19 20 21 22 22 22 21 22 22 23 24 25 26 27 27 27 26 26 26 25
22 22 21 19 18 18 17 16 17 17 18 19 19 19 20 19 18 18 19 19 20 20 20 20 20 21 22 22 22 22 22 23 24 24 25 26 26 26 26 26 26 25 25
21 21 20 18 18 17 16 16 16 17 18 19 19 19 17 17 17 17 17 18 19 20 20 20 21 21 22 22 22 22 23 24 24 25 25 26 26 26 26 25 25 25 25
20 19 19 18 18 17 16 16 16 17 18 19 18 17 16 16 17 18 18 18 18 18 18 19 20 20 20 21 21 22 22 24 24 24 25 24 24 24 24 25 25 25 25
20 19 19 19 18 17 17 17 17 17 17 16 16 16 16 16 17 17 17 16 16 16 17 18 18 19 19 20 20 20 21 22 23 24 25 24 24 24 24 24 25 26 26
20 18 19 19 18 17 17 17 17 16 16 16 15 15 15 16 16 16 15 15 15 17 17 18 18 18 18 18 19 20 21 22 22 23 23 23 24 24 24 25 26 26 26
17 18 19 18 17 16 16 16 16 16 16 15 15 15 15 15 15 15 15 15 16 16 17 17 17 17 17 18 19 20 20 21 22 22 22 23 23 23 24 25 25 26 27
18 18 18 17 17 15 15 15 16 16 16 15 15 16 16 15 15 15 15 16 16 17 17 17 16 17 17 18 19 19 20 21 21 22 22 23 23 23 24 24 25 26 26
18 18 17 16 16 16 16 16 16 16 16 16 16 16 15 15 14 14 15 16 16 17 17 17 16 17 17 18 19 19 21 21 22 22 23 23 23 24 25 25 25 26 26
18 18 17 16 15 17 17 17 16 16 16 16 16 16 15 15 15 16 16 16 17 17 17 17 17 17 18 19 19 20 21 21 22 22 23 23 23 24 25 26 26 26 26
18 18 17 15 16 18 17 17 16 16 16 17 16 16 15 15 15 15 16 17 17 17 16 17 17 17 18 19 20 21 22 22 23 23 23 24 24 24 24 24 24 25 25
18 18 17 17 17 17 17 17 16 17 17 16 16 16 15 15 15 15 16 17 17 17 16 17 17 17 19 20 21 22 22 22 23 24 24 24 24 24 24 24 25 24 24
19 18 18 18 17 17 16 17 16 16 16 16 16 15 16 15 16 16 16 16 17 16 16 16 17 18 19 20 20 21 21 22 23 23 24 24 24 24 24 24 24 24 23
19 18 18 18 17 16 16 17 16 16 16 16 15 16 16 16 16 16 16 17 17 15 15 16 17 18 18 19 20 20 21 22 22 23 23 23 23 23 24 24 23 23 23
18 18 18 17 17 17 17 16 16 16 16 16 16 16 16 17 17 16 17 17 17 16 16 17 17 18 19 19 20 19 20 22 23 23 23 23 23 23 24 24 24 24 23
18 18 17 17 17 17 17 16 16 16 16 16 16 17 17 17 17 17 17 17 17 17 18 18 18 18 19 20 20 20 21 22 23 23 23 23 23 23 24 24 23 23 23
19 18 17 18 18 17 17 16 16 16 16 17 17 17 17 17 18 17 17 17 17 17 18 19 19 19 20 20 20 21 22 22 22 22 23 23 24 23 23 24 23 23 22
20 18 18 18 18 18 17 16 16 16 16 16 17 17 17 17 17 18 18 17 17 18 18 19 19 19 20 20 20 21 21 22 22 22 22 23 23 23 23 23 22 22 22
20 19 18 18 18 18 17 16 16 16 16 17 17 17 17 17 17 18 18 18 18 18 18 18 19 20 20 20 21 21 22 22 22 23 23 23 23 23 23 22 21 21 21
20 20 19 18 18 17 17 17 16 17 17 17 16 16 18 17 18 18 18 18 19 18 18 18 19 19 20 21 21 22 22 23 23 23 23 24 24 24 23 22 21 20 21
Wind_Direction
306 301 300 297 294 291 288 288 288 286 286 286 286 289 291 291 289 288 288 287 287 285 280 278 277 278 277 279 276 278 280 281 282 284 284 284 286 283 280 278 279 277 276
306 303 302 300 295 292 289 288 287 286 286 287 286 288 290 290 289 288 287 287 284 281 276 275 275 276 277 277 276 277 279 282 282 282 283 282 282 283 282 278 279 278 277
305 303 303 301 295 293 291 287 287 286 286 287 286 287 289 290 289 291 289 287 284 281 278 277 278 277 276 278 278 277 278 280 281 282 282 282 283 282 282 280 280 280 279
304 302 303 301 298 294 293 291 291 289 287 286 286 288 288 287 288 289 288 286 286 284 284 281 281 281 280 281 281 281 281 281 281 283 283 284 285 284 283 282 281 279 279
306 303 304 303 301 297 295 296 295 294 291 290 287 288 287 286 288 288 286 285 284 283 284 283 282 282 283 283 284 285 285 283 281 282 284 285 286 285 285 283 281 280 279
308 306 307 304 302 300 299 298 298 298 296 294 292 289 287 285 286 287 286 286 285 284 282 283 285 284 285 285 285 285 284 282 282 282 284 284 285 286 285 284 282 281 279
313 314 313 311 308 305 303 302 302 301 301 300 299 296 291 287 286 285 285 286 287 285 282 283 285 285 285 286 288 287 288 287 285 283 285 285 286 286 286 285 284 282 281
315 317 318 318 315 310 307 305 306 304 302 302 303 301 297 292 288 288 287 287 287 284 283 284 285 285 284 285 287 287 288 290 289 287 287 287 288 287 287 286 286 286 285
320 320 319 320 317 314 310 305 307 306 303 303 305 305 302 298 295 295 295 294 292 289 289 287 286 286 286 286 288 287 287 290 291 289 289 288 287 286 285 285 286 286 286
320 321 320 321 316 317 318 314 310 308 305 304 307 308 304 301 298 298 299 298 295 293 292 290 289 289 289 290 291 290 289 291 292 291 290 288 288 287 286 285 286 287 287
321 321 321 322 321 320 320 319 317 315 312 311 310 310 309 306 303 300 298 296 295 294 294 294 293 293 293 294 294 293 294 295 296 294 292 291 290 289 287 287 287 288 287
324 323 324 323 323 324 322 322 321 322 318 315 313 312 312 308 305 303 302 300 300 299 298 297 296 296 296 295 295 297 299 300 299 298 295 293 291 290 288 287 286 287 287
325 323 325 326 326 327 326 325 326 326 327 324 321 319 316 313 309 305 303 303 304 304 303 302 300 299 298 298 298 299 302 302 301 300 298 295 293 293 292 289 288 286 286
326 326 327 327 330 332 330 328 328 330 330 329 328 326 320 316 314 310 309 308 308 308 308 305 303 301 300 299 301 302 303 304 304 303 300 298 297 296 294 292 291 290 289
325 327 327 328 331 332 330 327 329 332 332 331 329 330 328 324 320 316 315 315 312 309 308 306 303 302 302 302 304 305 306 307 305 303 300 298 297 296 294 294 294 293 291
327 329 327 326 328 329 329 329 329 331 332 330 329 329 328 325 323 319 317 317 315 313 310 307 304 303 305 305 304 305 306 306 307 306 304 302 300 297 296 296 295 294 294
326 328 327 327 329 332 333 333 329 329 330 328 327 327 326 325 322 321 321 318 315 312 310 309 307 306 307 305 305 307 308 309 308 307 306 305 303 301 301 300 297 296 294
325 326 328 328 328 329 330 330 330 330 331 329 327 325 327 328 325 322 323 320 318 316 312 311 310 309 309 308 307 309 310 310 310 309 308 308 308 306 305 303 301 299 296
323 324 329 332 331 329 330 330 330 333 334 334 331 328 327 329 328 325 324 324 321 318 316 314 314 314 313 313 313 312 311 312 313 313 312 311 309 308 307 306 304 303 299
323 325 328 328 328 327 328 330 331 333 335 336 333 331 330 331 330 328 326 326 328 325 323 321 320 319 317 315 314 315 315 315 315 314 314 314 312 311 310 308 307 305 302
320 322 325 326 326 327 327 327 332 332 332 332 330 330 331 334 333 329 328 328 329 328 327 324 323 322 321 320 318 318 318 317 317 316 316 316 314 312 310 309 308 306 303
314 317 319 322 323 323 325 325 326 329 328 327 328 328 329 331 331 329 328 326 325 327 328 327 326 324 324 323 321 321 321 319 319 319 319 318 316 313 312 311 310 309 307
312 313 315 317 318 319 320 322 324 324 324 325 326 326 326 329 329 328 327 326 325 326 328 328 327 326 325 325 324 323 322 322 322 322 322 320 319 317 316 315 313 312 310
309 310 312 312 313 314 315 315 318 321 323 325 325 325 326 330 330 329 329 329 327 326 327 328 327 326 326 326 324 322 321 322 322 323 324 323 322 320 318 316 315 313 312
306 308 309 311 309 309 310 312 313 315 318 320 322 324 328 331 332 331 330 330 329 327 327 327 327 327 327 327 325 325 326 325 324 324 326 325 324 322 320 318 317 315 315
304 306 307 308 307 306 306 307 310 313 315 316 318 321 324 327 327 328 328 330 330 328 327 327 327 328 329 328 328 327 328 330 330 329 330 329 328 327 324 320 319 319 319
Height
5819 5817 5814 5812 5811 5810 5809 5809 5808 5807 5807 5806 5805 5804 5803 5802 5800 5799 5798 5797 5796 5795 5795 5794 5794 5794 5794 5794 5794 5793 5792 5792 5791 5790 5790 5789 5788 5787 5787 5786 5785 5784 5784
5815 5812 5810 5808 5806 5805 5804 5803 5802 5801 5801 5800 5799 5798 5797 5796 5794 5793 5792 5791 5791 5790 5789 5788 5788 5789 5789 5788 5788 5788 5787 5786 5785 5784 5783 5783 5783 5781 5780 5780 5779 5778 5777
5811 5808 5806 5803 5802 5800 5799 5798 5797 5795 5794 5794 5793 5792 5791 5790 5789 5788 5787 5786 5785 5784 5784 5783 5783 5783 5783 5782 5782 5781 5781 5780 5779 5778 5777 5776 5776 5775 5774 5773 5772 5771 5771
5806 5803 5801 5798 5796 5795 5793 5792 5790 5789 5789 5788 5787 5787 5786 5785 5784 5782 5781 5780 5780 5779 5778 5778 5777 5777 5777 5776 5775 5775 5775 5774 5773 5772 5771 5770 5769 5768 5768 5767 5765 5764 5764
5802 5799 5797 5794 5791 5789 5788 5786 5785 5784 5784 5782 5782 5781 5780 5779 5778 5777 5776 5775 5774 5773 5772 5772 5772 5771 5771 5770 5770 5769 5768 5768 5767 5766 5764 5763 5762 5761 5760 5760 5759 5758 5757
5798 5794 5792 5790 5787 5784 5783 5781 5780 5780 5779 5778 5777 5775 5775 5774 5773 5772 5771 5770 5769 5768 5767 5767 5767 5766 5765 5765 5764 5763 5762 5761 5760 5759 5758 5757 5756 5754 5753 5752 5752 5751 5749
5796 5792 5789 5786 5783 5780 5779 5777 5776 5775 5774 5773 5772 5771 5770 5768 5768 5767 5766 5765 5764 5763 5762 5762 5761 5761 5760 5759 5758 5757 5756 5755 5754 5753 5751 5750 5749 5747 5746 5745 5744 5743 5742
5793 5790 5786 5783 5780 5778 5776 5774 5773 5772 5770 5769 5768 5766 5765 5763 5762 5762 5760 5759 5758 5758 5757 5756 5756 5755 5754 5753 5752 5751 5750 5749 5747 5746 5744 5742 5741 5740 5739 5738 5736 5735 5735
5791 5787 5783 5780 5778 5775 5773 5771 5770 5769 5767 5765 5763 5762 5760 5759 5757 5757 5755 5754 5753 5753 5752 5751 5750 5749 5748 5747 5746 5745 5744 5742 5741 5739 5737 5736 5734 5733 5731 5730 5729 5728 5727
5788 5785 5781 5778 5776 5773 5771 5768 5767 5766 5764 5761 5759 5757 5756 5755 5754 5753 5751 5750 5749 5748 5747 5746 5745 5744 5742 5741 5740 5738 5737 5736 5734 5732 5730 5729 5727 5726 5724 5722 5720 5719 5718
5785 5781 5778 5776 5773 5770 5768 5766 5764 5762 5760 5758 5756 5754 5752 5751 5749 5748 5747 5746 5744 5743 5742 5741 5739 5738 5737 5735 5734 5732 5731 5729 5727 5725 5723 5722 5720 5718 5717 5715 5713 5712 5710
5781 5778 5776 5773 5770 5768 5766 5764 5762 5759 5757 5755 5753 5751 5749 5747 5746 5744 5743 5742 5740 5739 5737 5736 5734 5733 5732 5730 5729 5727 5725 5723 5721 5719 5717 5715 5713 5711 5709 5707 5706 5704 5703
5780 5777 5774 5771 5768 5766 5764 5761 5759 5757 5755 5752 5750 5747 5745 5744 5742 5741 5739 5738 5736 5734 5733 5731 5730 5728 5727 5725 5724 5722 5720 5718 5715 5713 5711 5708 5706 5704 5701 5700 5698 5697 5695
5779 5776 5773 5770 5767 5764 5762 5760 5757 5755 5752 5750 5747 5745 5743 5741 5739 5738 5736 5734 5732 5731 5728 5726 5725 5724 5722 5721 5719 5717 5714 5712 5710 5707 5705 5702 5699 5697 5695 5693 5691 5689 5687
5777 5774 5771 5768 5766 5763 5760 5758 5755 5753 5751 5748 5745 5743 5741 5739 5737 5735 5733 5731 5729 5727 5725 5723 5721 5720 5718 5716 5714 5712 5709 5707 5704 5701 5699 5696 5693 5691 5688 5686 5683 5681 5679
5775 5772 5769 5767 5764 5761 5758 5756 5754 5751 5749 5746 5744 5741 5739 5737 5735 5732 5730 5728 5726 5723 5721 5719 5717 5716 5714 5712 5709 5707 5704 5701 5699 5696 5692 5689 5687 5684 5681 5679 5676 5674 5671
5774 5771 5768 5765 5762 5759 5756 5754 5752 5749 5747 5744 5742 5739 5737 5735 5732 5730 5728 5725 5722 5719 5717 5715 5713 5711 5709 5707 5705 5702 5699 5696 5693 5690 5687 5683 5680 5678 5675 5672 5669 5666 5663
5772 5769 5766 5763 5760 5758 5755 5752 5750 5747 5745 5742 5740 5737 5735 5732 5730 5728 5725 5722 5719 5716 5714 5712 5710 5708 5705 5703 5700 5697 5694 5691 5688 5685 5681 5678 5674 5671 5668 5665 5662 5659 5657
5770 5767 5764 5762 5759 5756 5753 5751 5748 5746 5743 5740 5738 5735 5733 5730 5728 5726 5723 5719 5716 5713 5711 5709 5706 5704 5701 5698 5695 5692 5689 5686 5683 5680 5676 5673 5669 5665 5661 5658 5655 5653 5650
5768 5765 5763 5760 5757 5755 5752 5749 5747 5744 5741 5739 5737 5734 5731 5729 5726 5723 5720 5716 5713 5711 5709 5706 5703 5700 5697 5694 5691 5688 5685 5682 5678 5675 5671 5667 5663 5659 5655 5652 5649 5646 5644
5766 5763 5760 5758 5755 5753 5750 5747 5745 5742 5740 5737 5735 5732 5729 5727 5724 5720 5717 5714 5711 5708 5706 5703 5700 5697 5694 5690 5687 5684 5680 5677 5674 5670 5666 5662 5658 5654 5650 5646 5643 5640 5637
5763 5760 5758 5755 5753 5750 5748 5745 5743 5740 5738 5735 5733 5730 5727 5724 5721 5718 5715 5712 5709 5706 5703 5700 5697 5693 5690 5687 5683 5680 5677 5673 5669 5665 5661 5657 5653 5649 5645 5641 5638 5634 5631
5760 5757 5755 5752 5750 5748 5745 5743 5740 5738 5735 5733 5730 5728 5725 5721 5718 5715 5712 5709 5706 5703 5700 5697 5693 5690 5687 5683 5680 5676 5672 5669 5665 5661 5656 5652 5648 5644 5640 5636 5632 5629 5626
5756 5753 5751 5749 5747 5745 5742 5740 5738 5735 5733 5730 5728 5725 5722 5719 5716 5712 5709 5706 5703 5700 5697 5694 5690 5687 5684 5680 5676 5672 5668 5665 5661 5656 5652 5648 5643 5639 5635 5631 5627 5624 5620
5751 5749 5747 5745 5743 5741 5739 5737 5734 5732 5730 5728 5725 5722 5719 5716 5713 5710 5706 5703 5700 5696 5694 5690 5687 5684 5680 5676 5672 5668 5664 5660 5656 5652 5648 5643 5639 5634 5630 5626 5622 5619 5615
5747 5745 5743 5741 5739 5737 5735 5733 5731 5729 5726 5724 5722 5719 5716 5713 5710 5707 5704 5700 5696 5693 5690 5687 5683 5680 5676 5672 5668 5664 5660 5656 5652 5647 5643 5639 5634 5629 5625 5621 5617 5613 5610